Date,TemperatureHighF,TemperatureAvgF,TemperatureLowF,DewpointHighF,DewpointAvgF,DewpointLowF,HumidityHigh,HumidityAvg,HumidityLow,PressureMaxIn,PressureMinIn,WindSpeedMaxMPH,WindSpeedAvgMPH,GustSpeedMaxMPH,PrecipitationSumIn
2013-5-1,79,66,51,61,54,46,91,67,45,30.20,30.06,8,2,0,0.00
2013-5-2,77,65,48,55,48,40,83,55,41,30.24,30.08,10,2,0,0.00
2013-5-3,78,66,50,48,44,39,78,46,27,30.13,29.98,10,4,0,0.00
2013-5-4,71,59,51,47,40,34,64,50,34,30.09,30.00,8,3,0,0.00
2013-5-5,76,69,61,36,31,27,35,25,20,29.94,29.89,7,2,0,0.00
2013-5-6,74,63,53,55,47,32,72,56,34,29.97,29.88,7,2,0,0.00
2013-5-7,69,62,56,59,55,52,91,79,65,29.94,29.88,8,1,0,0.03
2013-5-8,73,64,56,57,54,50,91,73,47,29.91,29.84,4,1,0,0.03
2013-5-9,82,66,55,60,55,49,93,72,35,29.93,29.85,7,1,0,0.02
2013-5-10,70,61,57,63,58,54,92,89,80,29.90,29.81,7,3,0,0.12
2013-5-11,54,52,48,50,48,43,88,85,82,29.83,29.76,10,2,0,0.09
2013-5-12,50,43,36,43,36,31,89,79,51,29.92,29.83,9,3,0,0.00
2013-5-13,54,46,36,32,31,29,82,59,39,30.13,30.08,3,1,0,0.00
2013-5-14,39,33,30,34,30,28,91,89,82,30.13,30.10,0,0,0,0.00
2013-5-15,86,79,62,65,62,57,84,56,44,29.72,29.64,9,5,0,0.00
2013-5-20,70,68,67,67,65,64,93,90,89,29.92,29.91,6,4,0,0.00
2013-5-22,84,76,65,68,65,62,89,69,51,29.78,29.66,11,7,0,0.00
2013-5-23,70,53,45,60,49,42,91,86,68,29.94,29.72,7,3,0,0.31
2013-5-24,50,45,36,42,38,33,91,77,60,30.27,29.94,7,3,0,0.00
2013-5-25,63,46,32,42,36,30,93,74,39,30.34,30.22,5,2,0,0.01
2013-5-26,68,52,33,42,38,31,93,63,32,30.28,30.17,4,1,0,0.00
2013-5-27,60,55,49,52,48,44,86,77,72,30.20,30.00,2,0,0,0.04
2013-5-28,82,66,55,68,60,52,93,81,60,30.00,29.86,10,2,0,0.43
2013-5-29,86,76,66,68,64,60,88,67,50,29.99,29.90,10,4,0,0.00
2013-5-30,66,64,62,63,61,59,92,90,89,30.04,29.98,0,0,0,0.00